Weather History for Sarasota, FL

Change the Weather History Date:

Friday, September 27, 2013

  Actual Average Record
Temperature  
Mean Temperature 80 °F 80 °F  
Max Temperature 88 °F 88 °F 94 °F (1925)
Min Temperature 72 °F 73 °F 59 °F (1991)
Degree Days  
Heating Degree Days 0 0  
Month to date heating degree days 0 0  
Since 1 July heating degree days 0 0  
Cooling Degree Days 15 15  
Month to date cooling degree days 460 448  
Year to date cooling degree days 2960 2745  
Growing Degree Days 29 (Base 50)    
Moisture  
Dew Point 70 °F    
Average Humidity 77    
Maximum Humidity 93    
Minimum Humidity 55    
Precipitation  
Precipitation 0.00 in 0.14 in 7.08 in (1997)
Month to date precipitation 11.95 6.67  
Year to date precipitation 50.56 45.00  
Sea Level Pressure  
Sea Level Pressure 29.90 in    
Wind  
Wind Speed 8 mph (NE)    
Max Wind Speed 16 mph    
Max Gust Speed 21 mph    
Visibility 10 miles    
Events      
T = Trace of Precipitation, MM = Missing Value Source: NWS Daily Summary

Daily Weather History Graph

Daily Weather History Graph

Search for Another Location

Airport:

Trip Planner

Search our weather history database for the weather conditions in past years. The results will help you decide how hot, cold, wet, or windy it might be!

Date:

Astronomy

Sep. 27, 2013 Rise Set
Actual Time 7:21 AM EDT 7:20 PM EDT
Civil Twilight 6:57 AM EDT 7:43 PM EDT
Nautical Twilight 6:30 AM EDT 8:10 PM EDT
Astronomical Twilight 6:03 AM EDT 8:38 PM EDT
Moon 12:44 AM EDT (9/27) 2:30 PM EDT (9/27)
Length of Visible Light 12h 46m
Length of Day
11h 59m
Last Quarter, 45% of the Moon is Illuminated
Sep 27
Last Quarter
Oct 4
New
Oct 11
First Quarter
Oct 18
Full
Oct 26
Last Quarter

Hourly Weather History & Observations

Time (EDT) Temp. Heat Index Dew Point Humidity Pressure Visibility Wind Dir Wind Speed Gust Speed Precip Events Conditions
12:53 AM 77.0 °F - 72.0 °F 84% 29.86 in 10.0 mi NNE 10.4 mph - N/A   Clear
1:53 AM 75.9 °F - 71.1 °F 85% 29.87 in 10.0 mi NE 8.1 mph - N/A   Clear
2:53 AM 75.0 °F - 71.1 °F 87% 29.87 in 10.0 mi NE 5.8 mph - N/A   Mostly Cloudy
3:27 AM 75.2 °F - 71.6 °F 89% 29.87 in 10.0 mi NE 4.6 mph - N/A   Overcast
3:53 AM 75.0 °F - 71.1 °F 87% 29.86 in 10.0 mi NE 4.6 mph - N/A   Mostly Cloudy
4:02 AM 73.4 °F - 71.6 °F 94% 29.86 in 10.0 mi NE 5.8 mph - N/A   Scattered Clouds
4:46 AM 73.4 °F - 71.6 °F 94% 29.87 in 10.0 mi Calm Calm - N/A   Mostly Cloudy
4:53 AM 73.0 °F - 71.1 °F 93% 29.87 in 10.0 mi NNE 4.6 mph - N/A   Mostly Cloudy
5:41 AM 73.4 °F - 69.8 °F 88% 29.87 in 10.0 mi NNE 5.8 mph - N/A   Scattered Clouds
5:53 AM 73.0 °F - 70.0 °F 90% 29.88 in 10.0 mi NNE 4.6 mph - N/A   Partly Cloudy
6:53 AM 72.0 °F - 69.1 °F 91% 29.89 in 10.0 mi NNE 5.8 mph - N/A   Scattered Clouds
7:53 AM 72.0 °F - 69.1 °F 91% 29.91 in 8.0 mi NNE 6.9 mph - N/A   Clear
8:33 AM 73.4 °F - 69.8 °F 88% 29.92 in 9.0 mi NNE 10.4 mph - N/A   Scattered Clouds
8:42 AM 73.4 °F - 69.8 °F 88% 29.93 in 9.0 mi NNE 10.4 mph - N/A   Mostly Cloudy
8:53 AM 73.0 °F - 70.0 °F 90% 29.93 in 9.0 mi NNE 8.1 mph - N/A   Overcast
9:53 AM 77.0 °F - 70.0 °F 79% 29.94 in 10.0 mi North 6.9 mph - N/A   Scattered Clouds
10:53 AM 80.1 °F 83.2 °F 70.0 °F 71% 29.94 in 10.0 mi Variable 5.8 mph - N/A   Partly Cloudy
11:53 AM 82.9 °F 86.5 °F 69.1 °F 63% 29.93 in 10.0 mi Variable 6.9 mph - N/A   Partly Cloudy
12:53 PM 82.9 °F 85.8 °F 68.0 °F 60% 29.91 in 10.0 mi Variable 6.9 mph - N/A   Mostly Cloudy
1:53 PM 84.9 °F 88.2 °F 68.0 °F 57% 29.90 in 10.0 mi North 10.4 mph - N/A   Scattered Clouds
2:53 PM 86.0 °F 89.4 °F 68.0 °F 55% 29.87 in 10.0 mi NNE 9.2 mph - N/A   Partly Cloudy
3:53 PM 86.0 °F 89.4 °F 68.0 °F 55% 29.86 in 10.0 mi NNE 9.2 mph - N/A   Partly Cloudy
4:53 PM 84.9 °F 88.8 °F 69.1 °F 59% 29.86 in 10.0 mi NNE 10.4 mph - N/A   Partly Cloudy
5:53 PM 84.0 °F 87.8 °F 69.1 °F 61% 29.87 in 10.0 mi ENE 10.4 mph - N/A   Partly Cloudy
6:53 PM 82.9 °F 85.8 °F 68.0 °F 60% 29.88 in 10.0 mi NE 12.7 mph - N/A   Partly Cloudy
7:43 PM 80.6 °F 83.9 °F 69.8 °F 70% 29.89 in 10.0 mi ENE 6.9 mph - N/A   Scattered Clouds
7:53 PM 80.1 °F 82.9 °F 69.1 °F 69% 29.90 in 10.0 mi ENE 8.1 mph - N/A   Partly Cloudy
8:53 PM 78.1 °F - 69.1 °F 74% 29.92 in 10.0 mi ENE 5.8 mph - N/A   Partly Cloudy
9:53 PM 78.1 °F - 69.1 °F 74% 29.94 in 10.0 mi NE 6.9 mph - N/A   Mostly Cloudy
10:53 PM 78.1 °F - 69.1 °F 74% 29.94 in 10.0 mi NE 6.9 mph - N/A   Overcast
11:53 PM 77.0 °F - 69.1 °F 76% 29.95 in 10.0 mi NE 6.9 mph - N/A   Partly Cloudy